Tracking 28514 objects as of 24-Feb-2024
HD Live streaming from Space Station
objects crossing your sky now

NSS 5 (INTELSAT 803)

Track NSS 5 (INTELSAT 803) now!
NSS 5 (INTELSAT 803) is classified as:


NORAD ID: 24957
Int'l Code: 1997-053A
Perigee: 36,108.1 km
Apogee: 36,140.4 km
Inclination: 8.7 °
Period: 1,453.0 minutes
Semi major axis: 42495 km
RCS: 25.1188 m2 (large)
Launch date: September 23, 1997
Source: Netherlands (NETH)
Launch site: FRENCH GUIANA (FRGUI)

38 C-band, 6 Ku-band; Pacific Ocean region; shared capacity with Intelset.
Your satellite tracking list
Your tracking list is empty




NASA's NSSDC Master Catalog

Two Line Element Set (TLE):
1 24957U 97053A   24054.65787149  .00000017  00000-0  00000-0 0  9991
2 24957   8.7044  54.9820 0003794 231.6714 313.5768  0.99104309 96583
Source of the keplerian elements: AFSPC